Regional Weather Roundup
Issued by NWS Lake Charles, LA

Home | Current Version | Previous Version | Text Only | Print | Product List | Glossary On
Versions: 1 2 3 4 5 6 7 8 9 10 11 12 13 14 15 16 17 18 19 20 21 22 23 24 25 26 27
000
ASUS44 KLCH 230810
RWRLCH
REGIONAL WEATHER ROUNDUP
NATIONAL WEATHER SERVICE LAKE CHARLES LA
300 AM CDT MON APR 23 2018

Note: "fair" indicates few or no clouds below 12,000 feet with no
significant weather and/or obstructions to visibility.


ACROSS SOUTHEAST TEXAS

CITY           SKY/WX    TMP DP  RH WIND       PRES   REMARKS
BEAUMONT       FAIR      51  50  96 SW6       30.01S
BEAUMONT CITY  FAIR      54  51  90 CALM      30.02S
ORANGE         FAIR      51  51 100 CALM      30.02F FOG
JASPER         FAIR      51  51  98 CALM      30.01F
$$

ACROSS CENTRAL LOUISIANA

CITY           SKY/WX    TMP DP  RH WIND       PRES   REMARKS
LEESVILLE      FAIR      52  50  93 NW7       29.96F
FULLERTON      FAIR      50  49  96 CALM      29.94F
ALEXANDRIA INT FAIR      50  48  93 W3        29.94F
ESLER FIELD    FAIR      46  46 100 CALM      29.95F FOG
DERIDDER       FAIR      51  50  95 CALM      30.00S
OAKDALE        FAIR      48  46  95 CALM      29.98S
OPELOUSAS      FAIR      54  50  89 CALM      29.98S
$$

ACROSS SOUTHWEST AND SOUTH CENTRAL LOUISIANA

CITY           SKY/WX    TMP DP  RH WIND       PRES   REMARKS
SULPHUR        FAIR      54  53  97 CALM      30.00F
LAKE CHARLES   FAIR      54  53  97 SW3       29.99F
CHENNAULT INT  FAIR      55  53  92 CALM      29.99F
CAMERON PHI    SUNNY     57  55  94 CALM      30.00F
DEQUINCY       FAIR      50  49  97 CALM      29.99F
JENNINGS       FAIR      53  52  96 S3        29.99S
LAFAYETTE      FAIR      54  52  93 S3        29.98F
NEW IBERIA     FAIR      55  53  93 SW3       29.99F
ABBEVILLE      FAIR      55  55 100 CALM      30.00S
PATTERSON      FAIR      57  55  93 CALM      29.99F
SALT POINT       N/A    N/A N/A N/A CALM      29.97F
$$

SELECTED SITES ACROSS THE REGION

CITY           SKY/WX    TMP DP  RH WIND       PRES   REMARKS
HOUSTON BUSH   FAIR      54  51  90 SW3       30.03S
HOUSTON HOBBY  FAIR      58  51  78 NW3       30.03F
GALVESTON      FAIR      64  53  67 N10       30.03F
COLLEGE STAT   CLEAR     51  48  89 CALM      30.03F
CONROE         CLEAR     47  47 100 CALM      30.02F
HUNTSVILLE     CLEAR     53  48  83 CALM      30.02F
LUFKIN         CLEAR     49  47  93 CALM      29.99F
SHREVEPORT     FAIR      50  49  96 NW6       29.95F
MONROE         FAIR      51  48  89 W5        29.94F
NATCHEZ MS     FAIR      50  49  96 CALM      29.94F
BATON ROUGE    FAIR      53  49  86 CALM      29.96F
N.O. INTL ARPT FAIR      61  51  70 NW8       29.96F
SLIDELL        FAIR      56  52  86 CALM      29.94F
$$

MARINE REPORTS

STATION/POSITION TIME  SKY/WX   TEMP    WIND        PRES    VSBY
                                AIR SEA DIR/SP/G
                 (UTC)          (F)     (DEG/KT/KT) (MB)    (MI)
BUOY 30 S HIGH I 0650            67 69  340/ 12/ 14 1016.6
WVE H/P(F/S)=  2/ 3

SEA RIM ST PARK  NOT AVBL
PORT ARTHUR      0736            59 67  350/  5/  6 1016.2F
SABINE PASS N    0736            62 70  310/  5/  6 1017.7F
TEXAS POINT      NOT AVBL
CALCASIEU PASS   0736            60 69   70/  2/  3 1014.9F
LK CHARLES BEACH 0736            56 68              1015.1F
MARSH ISLAND     NOT AVBL
FRESH WATER LOCK 0736            61 71              1015.9F
AMERADA PASS     0736            60 63  330/  5/  9 1015.2F
$$




USA.gov is the U.S. government's official web portal to all federal, state and local government web resources and services.